OpenBCM V1.07b12 (Linux)

Packet Radio Mailbox

DB0FHN

[JN59NK Nuernberg]

 Login: GUEST





  
CX7BY  > KEPS     18.04.03 05:17l 151 Lines 3940 Bytes #999 (0) @ AMSAT
BID : ORB03107.O
Read: DB0FHN GUEST
Subj: Orbital Elements  03107.OSCAR
Path: DB0FHN<DB0RGB<DB0SL<DB0FSG<I4UKI<IK5CKL<IK1ZNW<ON0BEL<CX2ACB<CX7BY
Sent: 030418/0304Z @:CX7BY.MVD.URY.SA #:36331 [Montevideo] FBB $:ORB03107.O
From: CX7BY@CX7BY.MVD.URY.SA
To  : KEPS@AMSAT


HR AMSAT ORBITAL ELEMENTS FOR OSCAR SATELLITES
FROM WA5QGD FORT WORTH,TX April 17, 2003
SEND SUBSCRIBE/UNSUBSCRIBE TO majordomo@amsat.org ONLY
BID: ORB03107.O
TO ALL RADIO AMATEURS BT

Satellite: AO-07
Catalog number: 07530
Epoch time:      03106.67356369
Element set:    0171
Inclination:      101.7502 deg
RA of node:       153.8992 deg
Eccentricity:    0.0012321
Arg of perigee:   328.7290 deg
Mean anomaly:     031.3047 deg
Mean motion:   12.53565175 rev/day
Decay rate:       -2.9e-07 rev/day^2
Epoch rev:           30034
Checksum:              270

Satellite: AO-10
Catalog number: 14129
Epoch time:      03107.20770856
Element set:     927
Inclination:       26.0769 deg
RA of node:       154.8618 deg
Eccentricity:    0.6004664
Arg of perigee:   344.5802 deg
Mean anomaly:       3.2724 deg
Mean motion:    2.05869259 rev/day
Decay rate:      -1.44e-06 rev/day^2
Epoch rev:           14922
Checksum:              299

Satellite: UO-11
Catalog number: 14781
Epoch time:      03107.55899613
Element set:     124
Inclination:       98.1271 deg
RA of node:        81.9700 deg
Eccentricity:    0.0010208
Arg of perigee:    30.6494 deg
Mean anomaly:     329.5310 deg
Mean motion:   14.78172735 rev/day
Decay rate:       8.20e-06 rev/day^2
Epoch rev:            2480
Checksum:              279

Satellite: RS-10/11
Catalog number: 18129
Epoch time:      03106.94798932
Element set:    0229
Inclination:      082.9204 deg
RA of node:       104.1169 deg
Eccentricity:    0.0013509
Arg of perigee:   067.6584 deg
Mean anomaly:     292.6008 deg
Mean motion:   13.72707152 rev/day
Decay rate:        6.8e-07 rev/day^2
Epoch rev:           79238
Checksum:              315

Satellite: FO-20
Catalog number: 20480
Epoch time:      03106.92346762
Element set:    0492
Inclination:      099.0565 deg
RA of node:       058.9155 deg
Eccentricity:    0.0539491
Arg of perigee:   233.9220 deg
Mean anomaly:     121.0764 deg
Mean motion:   12.83331554 rev/day
Decay rate:       -1.1e-07 rev/day^2
Epoch rev:           61787
Checksum:              298

Satellite: RS-12/13
Catalog number: 21089
Epoch time:      03106.61568684
Element set:    0507
Inclination:      082.9214 deg
RA of node:       139.0632 deg
Eccentricity:    0.0030496
Arg of perigee:   125.2899 deg
Mean anomaly:     235.1114 deg
Mean motion:   13.74410227 rev/day
Decay rate:        4.9e-07 rev/day^2
Epoch rev:           61162
Checksum:              289

Satellite: RS-15
Catalog number: 23439
Epoch time:      03106.94342824
Element set:    0701
Inclination:      064.8157 deg
RA of node:       308.7079 deg
Eccentricity:    0.0146499
Arg of perigee:   103.9946 deg
Mean anomaly:     257.7319 deg
Mean motion:   11.27548697 rev/day
Decay rate:       -2.4e-07 rev/day^2
Epoch rev:           34206
Checksum:              328

Satellite: FO-29
Catalog number: 24278
Epoch time:      03106.93263440
Element set:    0586
Inclination:      098.5455 deg
RA of node:       250.3858 deg
Eccentricity:    0.0351480
Arg of perigee:   067.7983 deg
Mean anomaly:     296.0049 deg
Mean motion:   13.52879201 rev/day
Decay rate:        4.2e-07 rev/day^2
Epoch rev:           32906
Checksum:              327

Satellite: SO-33
Catalog number: 25509
Epoch time:      03107.20938158
Element set:     825
Inclination:       31.4285 deg
RA of node:       187.6478 deg
Eccentricity:    0.0357104
Arg of perigee:    86.2520 deg
Mean anomaly:     277.8832 deg
Mean motion:   14.27484555 rev/day
Decay rate:       3.58e-06 rev/day^2
Epoch rev:           23355
Checksum:              322

Satellite: AO-40
Catalog number: 26609
Epoch time:      03101.06918723
Element set:     324
Inclination:        8.4684 deg
RA of node:        54.7135 deg
Eccentricity:    0.7954739
Arg of perigee:   162.8251 deg
Mean anomaly:     262.9704 deg
Mean motion:    1.25597299 rev/day
Decay rate:      -3.37e-06 rev/day^2
Epoch rev:            1123
Checksum:              311



Read previous mail | Read next mail


 17.09.2025 14:40:43lGo back Go up